Location: Cantaing
(50.1487°N, 3.1675°E)
Time: 14:33:35
(UTC+00:00)

Sich 1 - Visible Passes

Search period start: 19 April 2026 00:00
Search period end: 29 April 2026 00:00
Orbit: 571 x 597 km, 82.5° (Epoch: 19 April)

Date Brightness Start Highest point End Pass type
(mag) Time Alt. Az. Time Alt. Az. Time Alt. Az.
19 Apr 3.3 03:39:08 10° N 03:43:17 68° ENE 03:47:24 10° SSE visible
20 Apr 6.1 02:10:10 10° NE 02:11:48 12° ENE 02:13:25 10° E visible
20 Apr 2.9 03:45:25 10° N 03:49:36 86° W 03:53:44 10° S visible
21 Apr 5.9 02:15:43 10° NNE 02:18:17 16° ENE 02:20:51 10° ESE visible
21 Apr 2.9 03:51:45 10° NNW 03:55:53 62° W 03:59:57 10° S visible
22 Apr 5.5 02:21:34 10° NNE 02:24:45 21° ENE 02:27:54 10° ESE visible
22 Apr 3.3 03:58:09 10° NNW 04:02:07 44° W 04:06:02 10° SSW visible
23 Apr 5.0 02:27:35 10° N 02:31:10 27° ENE 02:34:43 10° SE visible
24 Apr 4.5 02:33:40 10° N 02:37:33 36° ENE 02:41:23 10° SE visible
25 Apr 3.8 02:39:50 10° N 02:43:54 50° ENE 02:47:56 10° SSE visible
26 Apr 3.2 02:46:03 10° N 02:50:14 70° E 02:54:21 10° SSE visible
27 Apr 5.9 01:17:02 10° NE 01:18:43 12° ENE 01:20:25 10° E visible
27 Apr 2.8 02:52:20 10° N 02:56:31 84° W 03:00:39 10° S visible
28 Apr 5.7 01:22:35 10° NNE 01:25:12 16° ENE 01:27:48 10° ESE visible
28 Apr 2.9 02:58:40 10° NNW 03:02:46 60° W 03:06:50 10° S visible
